Location: Lansingburgh
(42.7845°N, 73.6696°W)
Time: 13:14:24
(UTC+00:00)

Atlas Centaur 2 - Pass Details

Date: 24 January 2020
Orbit: 459 x 1310 km, 30.4° (Epoch: 25 February)

Event Time Altitude Azimuth Distance (km) Brightness Sun altitude
Rises 22:21:34 0° 213° (SSW) 2,673 5.8 -5.0°
Reaches altitude 10° 22:25:02 10° 181° (S) 1,932 4.4 -5.6°
Maximum altitude 22:26:43 12° 158° (SSE) 1,885 4.1 -5.9°
Drops below altitude 10° 22:28:33 10° 136° (SE) 2,108 4.1 -6.2°
Enters shadow 22:32:28 - 108° (ESE) 3,162 4.7 -6.9°
